Regional Weather Roundup
Issued by NWS Upton, NY

Current Version | Previous Version | Graphics & Text | Print | Product List | Glossary Off
Versions: 1 2 3 4 5 6 7 8 9 10 11 12 13 14 15 16 17 18 19 20 21 22 23 24 25 26 27 28 29 30 31 32 33 34 35 36 37 38 39 40 41 42 43 44 45 46 47 48 49 50

500
ASUS41 KOKX 270708
RWROKX

REGIONAL WEATHER ROUNDUP
NATIONAL WEATHER SERVICE NEW YORK NY
300 AM EDT MON MAR 27 2017

NOTE: "FAIR" INDICATES FEW OR NO CLOUDS BELOW 12,000 FEET WITH NO
SIGNIFICANT WEATHER AND/OR OBSTRUCTIONS TO VISIBILITY.

NYZ071-072-176-178-NJZ106-104-270800-
NEW YORK CITY METRO AREA

CITY           SKY/WX    TMP DP  RH WIND       PRES   REMARKS
Central Park   CLOUDY    38  37  97 NE8       30.25F FOG     WCI  32
Wall St Helipt CLOUDY    39  37  92 NE13      30.23F FOG     WCI  31
LaGuardia APRT DRIZZLE   39  37  92 NE10      30.24F FOG     WCI  32
Kennedy INTL   DRIZZLE   40  39  97 E9        30.24F FOG     WCI  34
Breezy Point     N/A     39 N/A N/A NE7         N/A  WCI  34
Newark/Liberty DRIZZLE   39  38  96 NE7       30.23F FOG     WCI  34
Teterboro      CLOUDY    38  37  97 E7        30.23F FOG     WCI  33
$$

NYZ177-179-078>081-270800-
LONG ISLAND NEW YORK

CITY           SKY/WX    TMP DP  RH WIND       PRES   REMARKS
Jones Beach      N/A     39 N/A N/A E16         N/A  WCI  30
Matinecock PT  NOT AVBL
Farmingdale    CLOUDY    39  38  96 E8        30.23F FOG     WCI  33
MacArthur/ISP  CLOUDY    39  39 100 E9        30.23F FOG     WCI  33
Shirley        CLOUDY    38  38 100 VRB3      30.25F FOG
Westhampton    CLOUDY    39  37  92 E9        30.26F WCI  33
East Hampton   CLOUDY    37  36  96 E8        30.26F WCI  31
Montauk          N/A     38  37  97 E8        30.28F WCI  32
$$

NYZ052-065-067-270800-
HUDSON VALLEY

CITY           SKY/WX    TMP DP  RH WIND       PRES   REMARKS
White Plains   DRIZZLE   36  35  96 E9        30.21F FOG     WCI  29
Newburgh       DRIZZLE   36  36 100 E7        30.24F FOG     WCI  30
Montgomery     CLOUDY    36  34  92 N6        30.21F FOG     WCI  31
Poughkeepsie   CLOUDY    34  33  96 N3        30.24F FOG
Albany         CLOUDY    36  30  79 S13       30.20F WCI  27
$$

NJZ001-105-106-008-010-013-015-019>022-104-270800-
NEW JERSEY

CITY           SKY/WX    TMP DP  RH WIND       PRES   REMARKS
Newark/Liberty DRIZZLE   39  38  96 NE7       30.23F FOG     WCI  34
Teterboro      CLOUDY    38  37  97 E7        30.23F FOG     WCI  33
Caldwell       LGT RAIN  37  36  96 E8        30.23F FOG     WCI  31
Somerville     LGT RAIN  40  39  97 VRB3      30.19F FOG
Linden         CLOUDY    39  38  94 E5        30.23F FOG
Sussex         LGT RAIN  36  36 100 NE5       30.20F WCI  32
Andover          N/A     37  35  92 CALM      30.19F
Trenton        LGT RAIN  40  39  97 E10       30.18F FOG     WCI  33
Millville      FOG       44  44 100 E7        30.17F VSB 1/2
Atlantic City  FOG       45  44  97 E7        30.18F VSB 1/4
Wrightstown    CLOUDY    41  40  97 E7        30.17F FOG
Toms River     LGT RAIN  41  41 100 NE7       30.20F FOG
Belmar         LGT RAIN  40  40 100 NE9       30.21F FOG     WCI  34
$$

PAZ047>061-062-071-270800-
EASTERN PENNSYLVANIA

CITY           SKY/WX    TMP DP  RH WIND       PRES   REMARKS
Philadelphia   CLOUDY    42  41  96 E7        30.18F FOG
Allentown      CLOUDY    40  37  89 E8        30.18F FOG     WCI  34
Scranton       LGT RAIN  39  37  92 NE9       30.11F WCI  33
$$

CTZ002-004>006-009-010-012-RIZ004-006-007-MAZ004-011-015-270800-
SOUTHERN NEW ENGLAND
 IN CT

CITY           SKY/WX    TMP DP  RH WIND       PRES   REMARKS
Bradley INTL   DRIZZLE   35  31  85 E5        30.29F WCI  31
Hartford       CLOUDY    35  33  92 NE3       30.29F FOG
Danbury        CLOUDY    35  34  96 NE6       30.24F FOG     WCI  30
Wtrbury/Oxford CLOUDY    34  30  86 E6        30.24F WCI  29
Bridgeport     CLOUDY    38  35  89 E14       30.26F FOG     WCI  30
Meriden        CLOUDY    37  33  85 CALM      30.28F FOG
New Haven      CLOUDY    36  35  96 NE5       30.27F FOG     WCI  32
Chester        NOT AVBL
Groton         CLOUDY    37  34  89 E8        30.27F FOG     WCI  31
Wilimantic     CLOUDY    36  34  92 NE3       30.30F FOG

 IN RI

CITY           SKY/WX    TMP DP  RH WIND       PRES   REMARKS
Providence     CLOUDY    36  31  82 E5        30.32F WCI  32
Block Island   MIX PCPN  37  36  96 E10       30.29F WCI  30
Westerly       LGT RAIN  37  35  92 E9        30.29F WCI  30
 IN MA

CITY           SKY/WX    TMP DP  RH WIND       PRES   REMARKS
Boston         CLOUDY    37  32  82 E10       30.34F WCI  30
Worcester      CLOUDY    32  27  81 E6        30.27F WCI  26
Westfield      CLOUDY    35  30  82 CALM      30.29F
Provincetown   CLOUDY    39  32  76 E7        30.34F WCI  34
Nantucket      CLOUDY    39  36  89 E15       30.30F FOG     WCI  31
$$

ANZ330-335-338-340-345-350-353-355-270800-
COASTAL MARINE OBSERVATIONS


STATION/POSITION TIME  SKY/WX   TEMP    WIND        PRES    VSBY  WAVE
                                AIR SEA DIR/SP/G                  HT/PER
                 (UTC)          (F)     (DEG/KT/KT) (MB)    (MI)  (FT/S)
NY HARB ENTRANCE 0550            41 42   60/ 17/ 19 1024.1          6/ 7
20 S FIRE ISLAND 0650            42 40   70/ 14/ 17 1022.8          6/ 7
GREAT SOUTH BAY  NOT AVBL
23 SSW MONTAUK P 0650            40 43              1024.7
15 E BARNEGAT LI 0630               43                N/A           6/ 8
HUDSON CANYON    0550            46 44   30/  8/  8 1023.2          7/ 8
KINGS POINT      0636            37 39              1023.8
EXECUTION ROCKS  NOT AVBL
CENTRAL LI SOUND 0630            38      80/ 16/ 17   N/A           2/ 5
EASTERN LI SOUND NOT AVBL
ROBBINS REEF     0636            38      40/  9/ 10 1024.2
$$


>>>>>>>>>>>>>>>>>>>>>>>>>>>> KEY <<<<<<<<<<<<<<<<<<<<<<<<<<<
>                                                          <
>     SKY/WX - Sky Condition/Present Weather               <
>     TMP    - Temperature in Fahrenheit                   <
>     DP     - Dew Point in Fahrenheit                     <
>     RH     - Relative Humidity in Percent                <
>     WIND   - Direction (from) and Speed in MPH           <
>     PRES   - Mean Sea Level Pressure (inches of Hg)      <
>     WCI    - Wind Chill Index                            <
>     VSB    - VISIBILITY IN MILES                         <
>     HX     - HEAT INDEX                                  <
>     TC     - TEMPERATURE IN CELSIUS                      <
>     VRB    - VARIABLE WIND DIRECTION                     <
>                                                          <
>>>>>>>>>>>>>>>>>>>>>>>>>>>> KEY <<<<<<<<<<<<<<<<<<<<<<<<<<<




USA.gov is the U.S. government's official web portal to all federal, state and local government web resources and services.